TimeEST,TemperatureF,Dew PointF,Humidity,Sea Level PressureIn,VisibilityMPH,Wind Direction,Wind SpeedMPH,Gust SpeedMPH,PrecipitationIn,Events,Conditions,WindDirDegrees,DateUTC
12:51 AM,6.1,1.0,80,30.14,10.0,West,6.9,-,0.00,,Partly Cloudy,280,2013-01-23 05:51:00
1:51 AM,7.0,-7.1,53,30.16,10.0,WNW,8.1,-,N/A,,Clear,290,2013-01-23 06:51:00
2:51 AM,5.0,-7.1,58,30.17,10.0,WNW,6.9,-,N/A,,Clear,300,2013-01-23 07:51:00
3:51 AM,3.0,-8.0,60,30.18,10.0,West,5.8,-,N/A,,Clear,280,2013-01-23 08:51:00
4:51 AM,1.9,-7.1,66,30.19,10.0,Calm,Calm,-,N/A,,Clear,0,2013-01-23 09:51:00
5:51 AM,1.9,-7.1,66,30.19,10.0,Calm,Calm,-,N/A,,Partly Cloudy,0,2013-01-23 10:51:00
6:51 AM,1.9,-7.1,66,30.20,10.0,Calm,Calm,-,N/A,,Scattered Clouds,0,2013-01-23 11:51:00
7:51 AM,3.0,-6.0,66,30.22,10.0,West,3.5,-,N/A,,Scattered Clouds,280,2013-01-23 12:51:00
8:51 AM,5.0,-6.0,61,30.22,10.0,West,6.9,-,N/A,,Partly Cloudy,280,2013-01-23 13:51:00
9:51 AM,6.1,-5.1,60,30.24,10.0,NNW,9.2,-,N/A,,Scattered Clouds,330,2013-01-23 14:51:00
10:51 AM,7.0,-5.1,58,30.24,10.0,WNW,10.4,-,N/A,,Scattered Clouds,290,2013-01-23 15:51:00
11:51 AM,8.1,-5.1,55,30.21,10.0,WNW,11.5,-,N/A,,Scattered Clouds,300,2013-01-23 16:51:00
12:51 PM,8.6,-5.8,52,30.16,10.0,WNW,13.8,25.3,N/A,,Partly Cloudy,290,2013-01-23 17:51:00
1:51 PM,10.0,-6.0,48,30.18,10.0,WNW,17.3,26.5,N/A,,Scattered Clouds,300,2013-01-23 18:51:00
2:51 PM,8.1,-8.0,48,30.19,10.0,WNW,16.1,26.5,N/A,,Mostly Cloudy,290,2013-01-23 19:51:00
3:51 PM,8.1,-9.0,46,30.19,10.0,WNW,16.1,-,N/A,,Mostly Cloudy,290,2013-01-23 20:51:00
4:51 PM,7.0,-9.0,48,30.20,10.0,WNW,10.4,-,N/A,,Scattered Clouds,290,2013-01-23 21:51:00
5:51 PM,6.1,-8.0,53,30.21,10.0,West,12.7,-,N/A,,Scattered Clouds,270,2013-01-23 22:51:00
6:51 PM,5.0,-8.0,55,30.22,10.0,West,10.4,-,N/A,,Scattered Clouds,270,2013-01-23 23:51:00
7:51 PM,3.9,-8.0,58,30.21,10.0,West,6.9,-,N/A,,Partly Cloudy,280,2013-01-24 00:51:00
8:51 PM,3.2,-9.4,56,30.18,10.0,Calm,Calm,-,N/A,,Clear,0,2013-01-24 01:51:00
9:51 PM,1.9,-9.0,60,30.20,10.0,Calm,Calm,-,N/A,,Clear,0,2013-01-24 02:51:00
10:51 PM,1.0,-8.0,66,30.20,10.0,Calm,Calm,-,N/A,,Clear,0,2013-01-24 03:51:00
11:51 PM,-0.0,-8.0,69,30.20,10.0,Calm,Calm,-,N/A,,Clear,0,2013-01-24 04:51:00